{"data":{"norad_id":49765,"epoch":"2026-05-24T10:03:08.390304Z","epoch_age_seconds":138932,"freshness":"FRESH","line1":"1 49765U 21115AT  26144.41884711  .00000382  00000+0  42072-4 0  9993","line2":"2 49765  53.2134 159.1715 0001170  72.0269 288.0851 15.08836171247112","mean_motion":15.08836171,"eccentricity":0.000117,"inclination_deg":53.2134,"raan_deg":159.1715,"arg_perigee_deg":72.0269,"mean_anomaly_deg":288.0851,"bstar":4.2072e-5,"rev_number":24711,"period_min":95.437796871321,"perigee_km":538.94569933519,"apogee_km":540.56448608489,"semimajor_km":6917.89209271,"source":"CELESTRAK","updated_at":"2026-05-25T13:38:16.840347Z"}}